Doha, Qatar

4:56 AM +03 on April 22, 2018 (GMT +0300)
Doha International

Weather History for OTBD - January, 2013

Change the Weather History Date:

Tuesday, January 22, 2013

  Actual Average Record
Temperature  
Mean Temperature 70 °F -  
Max Temperature 78 °F 72 °F 91 °F (2000)
Min Temperature 61 °F 56 °F 50 °F (2012)
Cooling Degree Days 4    
Growing Degree Days 20 (Base 50)    
Moisture  
Dew Point 55 °F    
Average Humidity 61    
Maximum Humidity 77    
Minimum Humidity 36    
Precipitation  
Precipitation 0.00 in 0.02 in - ()
Sea Level Pressure  
Sea Level Pressure 30.16 in    
Wind  
Wind Speed 5 mph ()    
Max Wind Speed 14 mph    
Max Gust Speed -    
Visibility 5.1 miles    
Events      
Averages and records for this station are not official NWS values.
T = Trace of Precipitation, MM = Missing Value Source: Averaged Metar Reports

Daily Weather History Graph

Daily Weather History Graph

Search for Another Location

Airport or City:

Astronomy

Jan. 22, 2013 Rise Set
Actual Time 6:20 AM +03 5:10 PM +03
Civil Twilight 5:55 AM +03 5:35 PM +03
Nautical Twilight 5:27 AM +03 6:02 PM +03
Astronomical Twilight 5:00 AM +03 6:30 PM +03
Moon 1:19 PM +03 2:18 AM +03
Length of Visible Light 11h 39m
Length of Day
10h 50m
Waxing Gibbous, 80% of the Moon is Illuminated
Jan 22
Waxing Gibbous
Jan 27
Full
Feb 3
Last Quarter
Feb 10
New
Feb 17
First Quarter

Hourly Weather History & Observations

Time (+03) Temp. Dew Point Humidity Pressure Visibility Wind Dir Wind Speed Gust Speed Precip Events Conditions
12:00 AM 66.2 °F 50.0 °F 56% 30.12 in - Variable 1.2 mph - N/A   Clear
1:00 AM 64.4 °F 51.8 °F 64% 30.12 in - Variable 2.3 mph - N/A   Clear
2:00 AM 64.4 °F 53.6 °F 68% 30.12 in - Variable 2.3 mph - N/A   Clear
3:00 AM 65 °F 54 °F 59% 30.14 in 6 mi North 4.6 mph - -  
3:00 AM 64.4 °F 53.6 °F 68% 30.12 in - North 4.6 mph - N/A   Clear
3:30 AM 62.6 °F 51.8 °F 68% 30.12 in - NNW 4.6 mph - N/A   Clear
4:00 AM 62.6 °F 53.6 °F 72% 30.12 in - Variable 2.3 mph - N/A   Clear
4:30 AM 62.6 °F 51.8 °F 68% 30.12 in - Variable 2.3 mph - N/A   Clear
5:00 AM 64.4 °F 51.8 °F 64% 30.15 in - Variable 2.3 mph - N/A   Clear
5:30 AM 62.6 °F 51.8 °F 68% 30.15 in - Calm Calm - N/A   Clear
6:00 AM 62.6 °F 51.8 °F 68% 30.15 in - Variable 2.3 mph - N/A   Clear
6:30 AM 62.6 °F 53.6 °F 72% 30.15 in 5.0 mi Variable 1.2 mph - N/A   Unknown
8:00 AM 66.2 °F 55.4 °F 68% 30.18 in 5.6 mi NW 5.8 mph - N/A   Unknown
8:30 AM 68.0 °F 59.0 °F 73% 30.18 in - NW 5.8 mph - N/A   Clear
9:00 AM 70 °F 59 °F 60% 30.22 in 6 mi NW 4.6 mph - -  
9:00 AM 69.8 °F 59.0 °F 68% 30.21 in - NW 4.6 mph - N/A   Clear
9:30 AM 71.6 °F 59.0 °F 64% 30.21 in - NNW 5.8 mph - N/A   Clear
10:00 AM 71.6 °F 57.2 °F 60% 30.21 in - NW 5.8 mph - N/A   Clear
10:30 AM 73.4 °F 55.4 °F 53% 30.21 in - NW 6.9 mph - N/A   Clear
11:00 AM 75.2 °F 53.6 °F 47% 30.18 in - NW 5.8 mph - N/A   Clear
11:30 AM 75.2 °F 51.8 °F 44% 30.18 in - NNW 8.1 mph - N/A   Clear
12:00 PM 77.0 °F 51.8 °F 41% 30.15 in - NW 6.9 mph - N/A   Clear
12:30 PM 77.0 °F 51.8 °F 41% 30.12 in - NNW 10.4 mph - N/A   Clear
1:00 PM 78.8 °F 51.8 °F 39% 30.12 in - North 10.4 mph - N/A   Clear
1:30 PM 77.0 °F 53.6 °F 44% 30.12 in - North 12.7 mph - N/A   Clear
2:00 PM 77.0 °F 55.4 °F 47% 30.12 in - NNW 11.5 mph - N/A   Clear
3:00 PM 77 °F 55 °F 36% 30.13 in 7 mi NNW 13.8 mph - -  
3:00 PM 77.0 °F 55.4 °F 47% 30.12 in - NNW 13.8 mph - N/A   Clear
4:00 PM 75.2 °F 57.2 °F 53% 30.12 in - NNW 10.4 mph - N/A   Clear
4:30 PM 75.2 °F 55.4 °F 50% 30.12 in - NW 10.4 mph - N/A   Clear
5:00 PM 73.4 °F 55.4 °F 53% 30.15 in - NNW 10.4 mph - N/A   Clear
5:30 PM 71.6 °F 57.2 °F 60% 30.15 in 5.6 mi NNW 8.1 mph - N/A   Unknown
6:00 PM 71.6 °F 57.2 °F 60% 30.15 in 5.0 mi NW 10.4 mph - N/A   Unknown
6:30 PM 69.8 °F 57.2 °F 64% 30.18 in 5.0 mi NW 11.5 mph - N/A   Unknown
7:00 PM 69.8 °F 59.0 °F 68% 30.18 in 5.0 mi NNW 12.7 mph - N/A   Unknown
8:00 PM 68.0 °F 57.2 °F 68% 30.18 in 5.0 mi NNW 8.1 mph - N/A   Unknown
9:00 PM 67 °F 57 °F 63% 30.19 in 5 mi NNW 5.8 mph - -   Haze
9:00 PM 66.2 °F 57.2 °F 73% 30.18 in 5.0 mi NNW 5.8 mph - N/A   Unknown
9:30 PM 66.2 °F 57.2 °F 73% 30.18 in 5.0 mi NNW 8.1 mph - N/A   Unknown
10:00 PM 66.2 °F 57.2 °F 73% 30.18 in 4.3 mi NNW 6.9 mph - N/A   Unknown
10:30 PM 66.2 °F 57.2 °F 73% 30.18 in 4.3 mi NW 5.8 mph - N/A   Unknown
11:00 PM 66.2 °F 57.2 °F 73% 30.18 in 4.3 mi NW 6.9 mph - N/A   Unknown
11:30 PM 64.4 °F 57.2 °F 77% 30.18 in 4.3 mi NW 6.9 mph - N/A   Unknown